This demonstration page uses our WeatherBlox Daily Observations layout. Learn more.

Left ArrowRight Arrow

38.88101, -77.10428

Hourly Observations for November 4, 2018

Temp ( °F °C ) Dew Point ( °F °C ) Humidity (%) Winds ( mph kmh ) Pressure ( in mb ) Visibility ( mi km ) Precip ( " mm )
12:52 am 00:52 Clear 48 8.9 37 2.8 66 66 Calm 30.4 1030 10 16.0934 0 0
1:52 am 01:52 Clear 45 7.2 38 3.3 77 77 WSW 3 6 30.42 1030 10 16.0934 0 0
1:52 am 01:52 Clear 44 6.7 38 3.3 79 79 SSW 3 6 30.44 1031 10 16.0934 0 0
2:52 am 02:52 Clear 44 6.7 38 3.3 79 79 Calm 30.45 1031 10 16.0934 0 0
3:52 am 03:52 Clear 45 7.2 38 3.3 77 77 NNW 3 6 30.46 1031 10 16.0934 0 0
4:52 am 04:52 Clear 43 6.1 39 3.9 86 86 NE 5 7 30.48 1032 10 16.0934 0 0
5:52 am 05:52 Mostly Clear 43 6.1 38 3.3 82 82 Calm 30.51 1033 10 16.0934 0 0
6:52 am 06:52 Mostly Sunny 43 6.1 39 3.9 86 86 ENE 3 6 30.51 1033 10 16.0934 0 0
7:52 am 07:52 Mostly Sunny 47 8.3 40 4.4 77 77 Calm 30.56 1035 10 16.0934 0 0
8:52 am 08:52 Mostly Sunny 50 10 39 3.9 66 66 NE 5 7 30.55 1035 10 16.0934 0 0
9:52 am 09:52 Mostly Sunny 54 12.2 36 2.2 51 51 E 9 15 30.55 1035 10 16.0934 0 0
10:52 am 10:52 Mostly Sunny 55 12.8 37 2.8 51 51 E 6 9 30.54 1034 10 16.0934 0 0
11:52 am 11:52 Mostly Sunny 57 13.9 36 2.2 45 45 VRB 5 7 30.52 1034 10 16.0934 0 0
12:52 pm 12:52 Mostly Sunny 58 14.4 35 1.7 42 42 SSE 6 9 30.5 1033 10 16.0934 0 0
1:52 pm 13:52 Mostly Sunny 58 14.4 34 1.1 41 41 SSE 8 13 30.46 1031 10 16.0934 0 0
2:52 pm 14:52 Mostly Sunny 59 15 37 2.8 44 44 ESE 7 11 30.44 1031 10 16.0934 0 0
3:52 pm 15:52 Partly Cloudy 58 14.4 35 1.7 42 42 ESE 7 11 30.42 1030 10 16.0934 0 0
4:52 pm 16:52 Partly Cloudy 56 13.3 38 3.3 51 51 E 8 13 30.41 1030 10 16.0934 0 0
5:52 pm 17:52 Partly Cloudy 54 12.2 38 3.3 55 55 E 9 15 30.42 1030 10 16.0934 0 0
6:52 pm 18:52 Cloudy 54 12.2 40 4.4 59 59 E 7 11 30.43 1030 10 16.0934 0 0
7:52 pm 19:52 Cloudy 53 11.7 40 4.4 61 61 ENE 9 15 30.41 1030 10 16.0934 0 0
8:52 pm 20:52 Cloudy 53 11.7 40 4.4 61 61 ENE 7 11 30.41 1030 10 16.0934 0 0
9:52 pm 21:52 Cloudy 54 12.2 44 6.7 69 69 E 7 11 30.41 1030 10 16.0934 0 0
10:52 pm 22:52 Cloudy 54 12.2 45 7.2 72 72 E 6 9 30.4 1029 10 16.0934 0 0
11:52 pm 23:52 Cloudy 54 12.2 45 7.2 72 72 ENE 8 13 30.36 1028 10 16.0934 0 0

Powered by AerisWeather